Time,TemperatureF,DewpointF,PressureIn,WindDirection,WindDirectionDegrees,WindSpeedMPH,WindSpeedGustMPH,Humidity,HourlyPrecipIn,Conditions,Clouds,dailyrainin,SoftwareType,DateUTC
2013-09-01 00:05:00,72.8,72.8,29.70,North,0,0.0,1.0,100,0.00,,,0.00,meteo_script,2013-09-01 04:05:00,
2013-09-01 00:10:00,72.7,72.7,29.70,SW,230,0.0,1.0,100,0.00,,,0.00,meteo_script,2013-09-01 04:10:00,
2013-09-01 00:20:00,72.7,72.7,29.70,North,0,0.0,1.0,100,0.00,,,0.00,meteo_script,2013-09-01 04:20:00,
2013-09-01 00:25:00,72.7,72.6,29.71,North,0,0.0,0.0,100,0.00,,,0.00,meteo_script,2013-09-01 04:25:00,
2013-09-01 00:30:00,72.7,72.6,29.71,SW,230,0.0,2.0,100,0.00,,,0.00,meteo_script,2013-09-01 04:30:00,
2013-09-01 00:35:00,72.7,72.7,29.71,SW,230,0.1,2.0,100,0.00,,,0.00,meteo_script,2013-09-01 04:35:00,
2013-09-01 00:40:00,72.7,72.7,29.70,SW,230,0.1,1.0,100,0.00,,,0.00,meteo_script,2013-09-01 04:40:00,
2013-09-01 00:45:00,72.6,72.6,29.70,SW,224,0.2,2.0,100,0.00,,,0.00,meteo_script,2013-09-01 04:45:00,
2013-09-01 00:55:00,72.5,72.5,29.69,North,0,0.0,0.0,100,0.00,,,0.00,meteo_script,2013-09-01 04:55:00,
2013-09-01 01:00:00,72.4,72.4,29.70,North,0,0.0,2.0,100,0.00,,,0.00,meteo_script,2013-09-01 05:00:00,
2013-09-01 01:05:00,72.4,72.4,29.69,North,0,0.1,1.0,100,0.00,,,0.00,meteo_script,2013-09-01 05:05:00,
2013-09-01 01:15:00,72.2,72.2,29.69,North,0,0.0,0.0,100,0.00,,,0.00,meteo_script,2013-09-01 05:15:00,
2013-09-01 01:20:00,72.1,72.1,29.69,North,0,0.0,0.0,100,0.00,,,0.00,meteo_script,2013-09-01 05:20:00,
2013-09-01 01:30:00,72.0,72.0,29.68,North,0,0.0,0.0,100,0.00,,,0.00,meteo_script,2013-09-01 05:30:00,
2013-09-01 01:40:00,71.9,71.9,29.68,North,0,0.0,0.0,100,0.00,,,0.00,meteo_script,2013-09-01 05:40:00,
2013-09-01 01:50:00,71.9,71.9,29.69,North,0,0.0,0.0,100,0.00,,,0.00,meteo_script,2013-09-01 05:50:00,
2013-09-01 01:55:00,72.0,72.0,29.69,North,0,0.0,0.0,100,0.00,,,0.00,meteo_script,2013-09-01 05:55:00,
2013-09-01 02:05:00,72.0,72.0,29.69,North,0,0.0,0.0,100,0.00,,,0.00,meteo_script,2013-09-01 06:05:00,
2013-09-01 02:10:00,72.0,72.0,29.69,North,0,0.0,0.0,100,0.00,,,0.00,meteo_script,2013-09-01 06:10:00,
2013-09-01 02:15:00,71.9,71.9,29.69,North,0,0.0,0.0,100,0.00,,,0.00,meteo_script,2013-09-01 06:15:00,
2013-09-01 02:25:00,71.9,71.9,29.69,North,0,0.0,0.0,100,0.00,,,0.00,meteo_script,2013-09-01 06:25:00,
2013-09-01 02:30:00,71.9,71.8,29.68,SW,216,0.1,3.0,100,0.00,,,0.00,meteo_script,2013-09-01 06:30:00,
2013-09-01 02:40:00,71.8,71.8,29.68,North,0,0.0,1.0,100,0.00,,,0.00,meteo_script,2013-09-01 06:40:00,
2013-09-01 02:45:00,71.8,71.8,29.68,North,0,0.0,1.0,100,0.00,,,0.00,meteo_script,2013-09-01 06:45:00,
2013-09-01 02:50:00,71.9,71.9,29.68,North,0,0.0,1.0,100,0.00,,,0.00,meteo_script,2013-09-01 06:50:00,
2013-09-01 03:00:00,71.8,71.8,29.68,North,0,0.0,0.0,100,0.00,,,0.00,meteo_script,2013-09-01 07:00:00,
2013-09-01 03:05:00,71.8,71.8,29.69,North,0,0.0,0.0,100,0.00,,,0.00,meteo_script,2013-09-01 07:05:00,
2013-09-01 03:10:00,71.7,71.7,29.69,SW,216,0.0,2.0,100,0.00,,,0.00,meteo_script,2013-09-01 07:10:00,
2013-09-01 03:20:00,71.7,71.7,29.69,SW,216,0.1,2.0,100,0.00,,,0.00,meteo_script,2013-09-01 07:20:00,
2013-09-01 03:25:00,71.6,71.6,29.69,SW,216,0.0,1.0,100,0.00,,,0.00,meteo_script,2013-09-01 07:25:00,
2013-09-01 03:35:00,71.6,71.6,29.69,SW,217,0.2,3.0,100,0.00,,,0.00,meteo_script,2013-09-01 07:35:00,
2013-09-01 03:40:00,71.7,71.7,29.69,WSW,250,0.2,3.0,100,0.00,,,0.00,meteo_script,2013-09-01 07:40:00,
2013-09-01 03:45:00,71.9,71.9,29.70,WSW,248,0.5,3.0,100,0.00,,,0.00,meteo_script,2013-09-01 07:45:00,
2013-09-01 03:55:00,72.2,72.2,29.70,SW,219,1.5,9.0,100,0.00,,,0.00,meteo_script,2013-09-01 07:55:00,
2013-09-01 04:00:00,72.3,72.3,29.70,SW,228,1.7,4.0,100,0.00,,,0.00,meteo_script,2013-09-01 08:00:00,
2013-09-01 04:10:00,72.2,72.2,29.70,West,279,1.2,3.0,100,0.00,,,0.00,meteo_script,2013-09-01 08:10:00,
2013-09-01 04:20:00,72.1,72.1,29.70,SW,222,0.6,4.0,100,0.00,,,0.00,meteo_script,2013-09-01 08:20:00,
2013-09-01 04:30:00,71.9,71.9,29.70,North,0,0.0,1.0,100,0.00,,,0.00,meteo_script,2013-09-01 08:30:00,
2013-09-01 04:35:00,71.9,71.8,29.70,SW,222,0.2,3.0,100,0.00,,,0.00,meteo_script,2013-09-01 08:35:00,
2013-09-01 04:45:00,71.7,71.7,29.70,North,0,0.0,1.0,100,0.00,,,0.00,meteo_script,2013-09-01 08:45:00,
2013-09-01 04:50:00,71.6,71.6,29.69,North,0,0.1,2.0,100,0.00,,,0.00,meteo_script,2013-09-01 08:50:00,
2013-09-01 04:55:00,71.6,71.6,29.69,North,0,0.0,0.0,100,0.00,,,0.00,meteo_script,2013-09-01 08:55:00,
2013-09-01 05:05:00,71.3,71.3,29.68,North,0,0.0,0.0,100,0.00,,,0.00,meteo_script,2013-09-01 09:05:00,
2013-09-01 05:10:00,71.2,71.2,29.68,North,0,0.0,0.0,100,0.00,,,0.00,meteo_script,2013-09-01 09:10:00,
2013-09-01 05:15:00,71.1,71.1,29.67,North,0,0.0,0.0,100,0.00,,,0.00,meteo_script,2013-09-01 09:15:00,
2013-09-01 05:20:00,71.0,71.0,29.68,North,0,0.0,0.0,100,0.00,,,0.00,meteo_script,2013-09-01 09:20:00,
2013-09-01 05:25:00,70.9,70.9,29.68,North,0,0.0,0.0,100,0.00,,,0.00,meteo_script,2013-09-01 09:25:00,
2013-09-01 05:30:00,70.8,70.8,29.69,North,0,0.0,0.0,100,0.00,,,0.00,meteo_script,2013-09-01 09:30:00,
2013-09-01 05:40:00,70.6,70.6,29.70,North,0,0.0,0.0,100,0.00,,,0.00,meteo_script,2013-09-01 09:40:00,
2013-09-01 05:45:00,70.5,70.5,29.70,North,0,0.0,0.0,100,0.00,,,0.00,meteo_script,2013-09-01 09:45:00,
2013-09-01 05:55:00,70.5,70.5,29.71,North,0,0.0,0.0,100,0.00,,,0.00,meteo_script,2013-09-01 09:55:00,
2013-09-01 06:00:00,70.4,70.4,29.71,North,0,0.0,0.0,100,0.00,,,0.00,meteo_script,2013-09-01 10:00:00,
2013-09-01 06:05:00,70.3,70.3,29.71,North,0,0.0,0.0,100,0.00,,,0.00,meteo_script,2013-09-01 10:05:00,
2013-09-01 06:15:00,70.1,70.1,29.71,North,0,0.0,1.0,100,0.00,,,0.00,meteo_script,2013-09-01 10:15:00,
2013-09-01 06:25:00,69.9,69.9,29.72,SSW,200,0.3,5.0,100,0.00,,,0.00,meteo_script,2013-09-01 10:25:00,
2013-09-01 06:30:00,69.8,69.8,29.72,SSW,196,0.4,2.0,100,0.00,,,0.00,meteo_script,2013-09-01 10:30:00,
2013-09-01 06:35:00,69.6,69.6,29.72,South,190,0.5,3.0,100,0.00,,,0.00,meteo_script,2013-09-01 10:35:00,
2013-09-01 06:45:00,69.3,69.3,29.72,SSW,195,0.6,3.0,100,0.00,,,0.00,meteo_script,2013-09-01 10:45:00,
2013-09-01 06:50:00,69.2,69.2,29.72,SSW,192,0.5,2.0,100,0.00,,,0.00,meteo_script,2013-09-01 10:50:00,
2013-09-01 07:00:00,69.1,69.1,29.72,SW,228,0.7,3.0,100,0.00,,,0.00,meteo_script,2013-09-01 11:00:00,
2013-09-01 07:05:00,69.1,69.1,29.73,SW,228,0.7,4.0,100,0.00,,,0.00,meteo_script,2013-09-01 11:05:00,
2013-09-01 07:10:00,69.1,69.1,29.73,North,0,0.3,1.0,100,0.00,,,0.00,meteo_script,2013-09-01 11:10:00,
2013-09-01 07:20:00,69.2,69.2,29.73,SW,221,0.2,2.0,100,0.00,,,0.00,meteo_script,2013-09-01 11:20:00,
2013-09-01 07:25:00,69.2,69.2,29.74,SW,222,0.1,2.0,100,0.00,,,0.00,meteo_script,2013-09-01 11:25:00,
2013-09-01 07:35:00,69.4,69.4,29.74,North,0,0.0,0.0,100,0.00,,,0.00,meteo_script,2013-09-01 11:35:00,
2013-09-01 07:40:00,69.5,69.5,29.75,North,0,0.0,0.0,100,0.00,,,0.00,meteo_script,2013-09-01 11:40:00,
2013-09-01 07:50:00,69.6,69.6,29.74,North,0,0.0,0.0,100,0.00,,,0.00,meteo_script,2013-09-01 11:50:00,
2013-09-01 07:55:00,69.7,69.7,29.75,North,0,0.0,0.0,100,0.00,,,0.00,meteo_script,2013-09-01 11:55:00,
2013-09-01 08:00:00,69.8,69.8,29.75,North,0,0.0,0.0,100,0.00,,,0.00,meteo_script,2013-09-01 12:00:00,
2013-09-01 08:05:00,69.9,69.9,29.75,North,0,0.0,0.0,100,0.00,,,0.00,meteo_script,2013-09-01 12:05:00,
2013-09-01 08:10:00,70.0,70.0,29.75,North,0,0.0,0.0,100,0.00,,,0.00,meteo_script,2013-09-01 12:10:00,
2013-09-01 08:15:00,70.1,70.1,29.75,North,0,0.0,0.0,100,0.00,,,0.00,meteo_script,2013-09-01 12:15:00,
2013-09-01 08:25:00,70.5,70.5,29.75,North,0,0.0,1.0,100,0.00,,,0.00,meteo_script,2013-09-01 12:25:00,
2013-09-01 08:30:00,70.7,70.7,29.74,North,0,0.0,0.0,100,0.00,,,0.00,meteo_script,2013-09-01 12:30:00,
2013-09-01 08:35:00,70.9,70.9,29.74,North,0,0.0,0.0,100,0.00,,,0.00,meteo_script,2013-09-01 12:35:00,
2013-09-01 08:40:00,71.0,71.0,29.74,North,0,0.0,0.0,100,0.00,,,0.00,meteo_script,2013-09-01 12:40:00,
2013-09-01 08:50:00,71.1,71.1,29.74,North,0,0.0,0.0,100,0.00,,,0.00,meteo_script,2013-09-01 12:50:00,
2013-09-01 09:00:00,71.2,71.2,29.74,North,0,0.0,0.0,100,0.00,,,0.00,meteo_script,2013-09-01 13:00:00,
2013-09-01 09:05:00,71.1,71.1,29.74,SW,221,0.0,1.0,100,0.00,,,0.00,meteo_script,2013-09-01 13:05:00,
2013-09-01 09:10:00,71.1,71.1,29.75,SW,222,0.1,1.0,100,0.00,,,0.00,meteo_script,2013-09-01 13:10:00,
2013-09-01 09:20:00,71.2,71.2,29.75,North,0,0.1,1.0,100,0.00,,,0.00,meteo_script,2013-09-01 13:20:00,
2013-09-01 09:25:00,71.2,71.2,29.75,SW,217,0.1,1.0,100,0.00,,,0.00,meteo_script,2013-09-01 13:25:00,
2013-09-01 09:35:00,71.3,71.3,29.74,SW,217,0.0,1.0,100,0.00,,,0.00,meteo_script,2013-09-01 13:35:00,
2013-09-01 09:40:00,71.4,71.4,29.75,SW,217,0.1,1.0,100,0.00,,,0.00,meteo_script,2013-09-01 13:40:00,
2013-09-01 09:45:00,71.5,71.5,29.75,North,0,0.0,1.0,100,0.00,,,0.00,meteo_script,2013-09-01 13:45:00,
2013-09-01 09:55:00,71.9,71.9,29.76,North,0,0.0,1.0,100,0.00,,,0.00,meteo_script,2013-09-01 13:55:00,
2013-09-01 10:00:00,72.3,72.3,29.76,SW,217,0.0,2.0,100,0.00,,,0.00,meteo_script,2013-09-01 14:00:00,
2013-09-01 10:05:00,72.5,72.5,29.76,North,0,0.0,1.0,100,0.00,,,0.00,meteo_script,2013-09-01 14:05:00,
2013-09-01 10:15:00,72.9,72.9,29.76,North,0,0.0,0.0,100,0.00,,,0.00,meteo_script,2013-09-01 14:15:00,
2013-09-01 10:20:00,72.9,72.9,29.76,North,0,0.0,0.0,100,0.00,,,0.00,meteo_script,2013-09-01 14:20:00,
2013-09-01 10:30:00,73.0,73.0,29.77,North,0,0.1,3.0,100,0.00,,,0.00,meteo_script,2013-09-01 14:30:00,
2013-09-01 10:35:00,72.8,72.8,29.77,South,182,0.3,2.0,100,0.00,,,0.00,meteo_script,2013-09-01 14:35:00,
2013-09-01 10:45:00,72.5,72.5,29.77,South,182,0.5,3.0,100,0.00,,,0.00,meteo_script,2013-09-01 14:45:00,
2013-09-01 10:50:00,72.4,72.4,29.77,South,182,0.6,3.0,100,0.00,,,0.00,meteo_script,2013-09-01 14:50:00,
2013-09-01 10:55:00,72.2,72.2,29.76,SSW,213,0.6,3.0,100,0.00,,,0.00,meteo_script,2013-09-01 14:55:00,
2013-09-01 11:05:00,72.3,72.3,29.76,SSW,213,0.4,2.0,100,0.00,,,0.00,meteo_script,2013-09-01 15:05:00,
2013-09-01 11:10:00,72.4,72.4,29.76,SSW,213,0.4,2.0,100,0.00,,,0.00,meteo_script,2013-09-01 15:10:00,
2013-09-01 11:20:00,72.4,72.4,29.76,SSW,213,0.2,2.0,100,0.00,,,0.00,meteo_script,2013-09-01 15:20:00,
2013-09-01 11:25:00,72.4,72.4,29.76,SSW,213,0.0,1.0,100,0.00,,,0.00,meteo_script,2013-09-01 15:25:00,
2013-09-01 11:30:00,72.4,72.4,29.76,North,0,0.0,0.0,100,0.00,,,0.00,meteo_script,2013-09-01 15:30:00,
2013-09-01 11:40:00,72.5,72.5,29.76,North,0,0.0,2.0,100,0.00,,,0.00,meteo_script,2013-09-01 15:40:00,
2013-09-01 11:45:00,72.6,72.6,29.76,North,0,0.1,2.0,100,0.00,,,0.00,meteo_script,2013-09-01 15:45:00,
2013-09-01 11:55:00,73.2,73.2,29.76,SSW,213,0.0,1.0,100,0.00,,,0.00,meteo_script,2013-09-01 15:55:00,
2013-09-01 12:00:00,73.7,73.7,29.76,SSW,213,0.1,1.0,100,0.00,,,0.00,meteo_script,2013-09-01 16:00:00,
2013-09-01 12:05:00,74.4,74.4,29.76,SW,222,0.2,2.0,100,0.00,,,0.00,meteo_script,2013-09-01 16:05:00,
2013-09-01 12:15:00,76.1,76.1,29.75,North,0,0.6,4.0,100,0.00,,,0.00,meteo_script,2013-09-01 16:15:00,
2013-09-01 12:20:00,76.2,76.2,29.75,North,0,0.4,0.0,100,0.00,,,0.00,meteo_script,2013-09-01 16:20:00,
2013-09-01 12:25:00,76.4,76.4,29.75,SSW,212,0.1,3.0,100,0.00,,,0.00,meteo_script,2013-09-01 16:25:00,
2013-09-01 12:35:00,76.3,76.3,29.75,South,179,1.1,4.0,100,0.00,,,0.00,meteo_script,2013-09-01 16:35:00,
2013-09-01 12:40:00,77.7,77.7,29.75,East,82,1.1,3.0,100,0.00,,,0.00,meteo_script,2013-09-01 16:40:00,
2013-09-01 12:50:00,78.8,78.8,29.75,SSW,201,1.1,4.0,100,0.00,,,0.00,meteo_script,2013-09-01 16:50:00,
2013-09-01 12:55:00,78.3,78.3,29.75,South,186,0.8,4.0,100,0.00,,,0.00,meteo_script,2013-09-01 16:55:00,
2013-09-01 13:00:00,78.0,77.9,29.75,SSW,208,0.6,4.0,100,0.00,,,0.00,meteo_script,2013-09-01 17:00:00,
2013-09-01 13:05:00,77.7,77.7,29.75,SSW,208,0.7,3.0,100,0.00,,,0.00,meteo_script,2013-09-01 17:05:00,
2013-09-01 13:15:00,77.4,77.4,29.75,North,0,0.3,3.0,100,0.00,,,0.00,meteo_script,2013-09-01 17:15:00,
2013-09-01 13:25:00,79.6,79.4,29.74,SW,223,0.2,3.0,99,0.00,,,0.00,meteo_script,2013-09-01 17:25:00,
2013-09-01 13:35:00,79.9,79.6,29.74,North,0,0.8,4.0,99,0.00,,,0.00,meteo_script,2013-09-01 17:35:00,
2013-09-01 13:45:00,83.0,80.9,29.73,SSW,213,0.8,5.0,93,0.00,,,0.00,meteo_script,2013-09-01 17:45:00,
2013-09-01 13:50:00,83.5,81.3,29.73,SSW,209,1.5,8.0,93,0.00,,,0.00,meteo_script,2013-09-01 17:50:00,
2013-09-01 14:00:00,83.2,81.0,29.73,SSW,206,0.8,4.0,93,0.00,,,0.00,meteo_script,2013-09-01 18:00:00,
2013-09-01 14:05:00,82.9,80.5,29.72,SSW,205,0.6,4.0,92,0.00,,,0.00,meteo_script,2013-09-01 18:05:00,
2013-09-01 14:10:00,81.8,79.9,29.73,SSW,203,1.3,3.0,94,0.00,,,0.00,meteo_script,2013-09-01 18:10:00,
2013-09-01 14:20:00,81.0,79.5,29.73,SW,226,1.1,4.0,95,0.00,,,0.00,meteo_script,2013-09-01 18:20:00,
2013-09-01 14:25:00,82.3,80.7,29.73,SSW,196,1.1,4.0,94,0.00,,,0.00,meteo_script,2013-09-01 18:25:00,
2013-09-01 14:30:00,83.1,81.2,29.73,SSW,196,1.1,3.0,94,0.00,,,0.00,meteo_script,2013-09-01 18:30:00,
2013-09-01 14:40:00,83.5,80.7,29.73,SW,225,1.1,3.0,91,0.00,,,0.00,meteo_script,2013-09-01 18:40:00,
2013-09-01 14:45:00,82.7,80.1,29.73,SW,225,0.6,3.0,92,0.00,,,0.00,meteo_script,2013-09-01 18:45:00,
2013-09-01 14:55:00,81.3,79.6,29.73,SW,224,0.1,2.0,94,0.00,,,0.00,meteo_script,2013-09-01 18:55:00,
2013-09-01 15:00:00,82.0,80.3,29.73,SW,225,0.2,3.0,94,0.00,,,0.00,meteo_script,2013-09-01 19:00:00,
2013-09-01 15:10:00,83.4,80.5,29.72,SW,222,0.6,2.0,91,0.00,,,0.00,meteo_script,2013-09-01 19:10:00,
2013-09-01 15:15:00,83.9,81.0,29.72,SW,222,0.4,3.0,91,0.00,,,0.00,meteo_script,2013-09-01 19:15:00,
2013-09-01 15:20:00,84.7,81.2,29.72,SSW,212,0.4,2.0,89,0.00,,,0.00,meteo_script,2013-09-01 19:20:00,
2013-09-01 15:30:00,84.0,80.7,29.72,SW,221,0.5,2.0,90,0.00,,,0.00,meteo_script,2013-09-01 19:30:00,
2013-09-01 15:35:00,83.6,80.2,29.72,North,0,0.4,3.0,89,0.00,,,0.00,meteo_script,2013-09-01 19:35:00,
2013-09-01 15:45:00,82.7,80.0,29.72,SW,221,0.2,2.0,91,0.00,,,0.00,meteo_script,2013-09-01 19:45:00,
2013-09-01 15:50:00,83.1,80.5,29.71,SSW,200,0.6,4.0,91,0.00,,,0.00,meteo_script,2013-09-01 19:50:00,
2013-09-01 15:55:00,83.3,80.4,29.72,South,185,0.7,2.0,91,0.00,,,0.00,meteo_script,2013-09-01 19:55:00,
2013-09-01 16:05:00,83.0,80.1,29.72,SSW,212,0.8,4.0,91,0.00,,,0.00,meteo_script,2013-09-01 20:05:00,
2013-09-01 16:10:00,82.1,79.8,29.72,SW,221,0.8,2.0,93,0.00,,,0.00,meteo_script,2013-09-01 20:10:00,
2013-09-01 16:20:00,81.7,80.1,29.72,SW,221,0.2,3.0,95,0.00,,,0.00,meteo_script,2013-09-01 20:20:00,
2013-09-01 16:25:00,81.6,79.7,29.72,SW,221,0.4,4.0,94,0.00,,,0.00,meteo_script,2013-09-01 20:25:00,
2013-09-01 16:30:00,81.3,79.7,29.72,SW,222,0.4,1.0,95,0.00,,,0.00,meteo_script,2013-09-01 20:30:00,
2013-09-01 16:40:00,81.5,79.9,29.72,WSW,255,0.5,3.0,95,0.00,,,0.00,meteo_script,2013-09-01 20:40:00,
2013-09-01 16:45:00,81.1,79.8,29.72,North,0,0.5,3.0,96,0.00,,,0.00,meteo_script,2013-09-01 20:45:00,
2013-09-01 16:55:00,80.8,79.5,29.72,WSW,254,0.3,2.0,96,0.00,,,0.00,meteo_script,2013-09-01 20:55:00,
2013-09-01 17:00:00,80.6,79.4,29.72,WSW,253,0.3,2.0,96,0.00,,,0.00,meteo_script,2013-09-01 21:00:00,
2013-09-01 17:05:00,80.6,79.6,29.72,WSW,253,0.2,1.0,97,0.00,,,0.00,meteo_script,2013-09-01 21:05:00,
2013-09-01 17:15:00,80.5,79.6,29.72,WSW,253,0.5,3.0,97,0.00,,,0.00,meteo_script,2013-09-01 21:15:00,
2013-09-01 17:20:00,80.4,79.5,29.72,WSW,247,0.6,3.0,97,0.00,,,0.00,meteo_script,2013-09-01 21:20:00,
2013-09-01 17:30:00,80.0,79.4,29.72,North,0,0.6,3.0,98,0.00,,,0.00,meteo_script,2013-09-01 21:30:00,
2013-09-01 17:35:00,79.9,79.4,29.72,WSW,246,0.6,3.0,98,0.00,,,0.00,meteo_script,2013-09-01 21:35:00,
2013-09-01 17:45:00,79.9,79.5,29.72,SE,136,0.3,3.0,99,0.00,,,0.00,meteo_script,2013-09-01 21:45:00,
2013-09-01 17:55:00,79.4,79.4,29.72,SE,136,0.3,1.0,100,0.00,,,0.00,meteo_script,2013-09-01 21:55:00,
2013-09-01 18:05:00,78.8,78.8,29.72,SE,138,0.1,2.0,100,0.00,,,0.00,meteo_script,2013-09-01 22:05:00,
2013-09-01 18:10:00,78.5,78.5,29.72,South,177,0.3,3.0,100,0.00,,,0.00,meteo_script,2013-09-01 22:10:00,
2013-09-01 18:20:00,78.0,78.0,29.72,North,0,0.1,1.0,100,0.00,,,0.00,meteo_script,2013-09-01 22:20:00,
2013-09-01 18:25:00,77.9,77.9,29.72,WSW,254,0.1,1.0,100,0.00,,,0.00,meteo_script,2013-09-01 22:25:00,
2013-09-01 18:35:00,77.6,77.6,29.73,North,0,0.0,0.0,100,0.00,,,0.00,meteo_script,2013-09-01 22:35:00,
2013-09-01 18:40:00,77.5,77.5,29.72,North,0,0.0,0.0,100,0.00,,,0.00,meteo_script,2013-09-01 22:40:00,
2013-09-01 18:45:00,77.4,77.4,29.72,WSW,254,0.0,1.0,100,0.00,,,0.00,meteo_script,2013-09-01 22:45:00,
2013-09-01 18:55:00,77.1,77.1,29.72,North,0,0.0,0.0,100,0.00,,,0.00,meteo_script,2013-09-01 22:55:00,
2013-09-01 19:00:00,77.0,77.0,29.72,North,0,0.0,0.0,100,0.00,,,0.00,meteo_script,2013-09-01 23:00:00,
2013-09-01 19:05:00,76.9,76.9,29.72,WSW,254,0.0,1.0,100,0.00,,,0.00,meteo_script,2013-09-01 23:05:00,
2013-09-01 19:15:00,76.5,76.5,29.73,North,0,0.0,0.0,100,0.00,,,0.00,meteo_script,2013-09-01 23:15:00,
2013-09-01 19:20:00,76.4,76.4,29.73,WSW,253,0.0,1.0,100,0.00,,,0.00,meteo_script,2013-09-01 23:20:00,
2013-09-01 19:30:00,76.0,76.0,29.73,North,0,0.0,0.0,100,0.00,,,0.00,meteo_script,2013-09-01 23:30:00,
2013-09-01 19:35:00,75.8,75.8,29.73,North,0,0.0,0.0,100,0.00,,,0.00,meteo_script,2013-09-01 23:35:00,
2013-09-01 19:40:00,75.6,75.6,29.73,North,0,0.0,0.0,100,0.00,,,0.00,meteo_script,2013-09-01 23:40:00,
2013-09-01 19:50:00,75.5,75.5,29.73,North,0,0.0,0.0,100,0.00,,,0.00,meteo_script,2013-09-01 23:50:00,
2013-09-01 19:55:00,75.5,75.5,29.73,North,0,0.0,1.0,100,0.00,,,0.00,meteo_script,2013-09-01 23:55:00,
2013-09-01 20:05:00,75.5,75.5,29.74,North,0,0.0,1.0,100,0.00,,,0.00,meteo_script,2013-09-02 00:05:00,
2013-09-01 20:10:00,75.5,75.5,29.74,North,0,0.0,0.0,100,0.00,,,0.00,meteo_script,2013-09-02 00:10:00,
2013-09-01 20:20:00,75.3,75.3,29.74,North,0,0.0,1.0,100,0.00,,,0.00,meteo_script,2013-09-02 00:20:00,
2013-09-01 20:25:00,75.1,75.1,29.74,WSW,253,0.0,1.0,100,0.00,,,0.00,meteo_script,2013-09-02 00:25:00,
2013-09-01 20:30:00,75.0,75.0,29.74,North,0,0.0,1.0,100,0.00,,,0.00,meteo_script,2013-09-02 00:30:00,
2013-09-01 20:40:00,74.7,74.7,29.74,North,0,0.0,1.0,100,0.00,,,0.00,meteo_script,2013-09-02 00:40:00,
2013-09-01 20:45:00,74.6,74.6,29.74,North,0,0.0,0.0,100,0.00,,,0.00,meteo_script,2013-09-02 00:45:00,
2013-09-01 20:55:00,74.4,74.4,29.75,North,0,0.0,0.0,100,0.00,,,0.00,meteo_script,2013-09-02 00:55:00,
2013-09-01 21:00:00,74.3,74.3,29.74,WSW,257,0.0,1.0,100,0.00,,,0.00,meteo_script,2013-09-02 01:00:00,
2013-09-01 21:05:00,74.2,74.2,29.74,WSW,256,0.0,1.0,100,0.00,,,0.00,meteo_script,2013-09-02 01:05:00,
2013-09-01 21:15:00,74.1,74.1,29.74,North,0,0.0,1.0,100,0.00,,,0.00,meteo_script,2013-09-02 01:15:00,
2013-09-01 21:20:00,74.0,74.0,29.74,North,0,0.0,1.0,100,0.00,,,0.00,meteo_script,2013-09-02 01:20:00,
2013-09-01 21:30:00,73.8,73.8,29.74,WSW,256,0.1,1.0,100,0.00,,,0.00,meteo_script,2013-09-02 01:30:00,
2013-09-01 21:35:00,73.7,73.7,29.74,WSW,256,0.1,1.0,100,0.00,,,0.00,meteo_script,2013-09-02 01:35:00,
2013-09-01 21:40:00,73.6,73.6,29.74,North,0,0.1,1.0,100,0.00,,,0.00,meteo_script,2013-09-02 01:40:00,
2013-09-01 21:50:00,73.4,73.4,29.74,North,0,0.0,1.0,100,0.00,,,0.00,meteo_script,2013-09-02 01:50:00,
2013-09-01 21:55:00,73.3,73.3,29.74,North,0,0.0,0.0,100,0.00,,,0.00,meteo_script,2013-09-02 01:55:00,
2013-09-01 22:05:00,73.1,73.1,29.74,WSW,256,0.1,2.0,100,0.00,,,0.00,meteo_script,2013-09-02 02:05:00,
2013-09-01 22:10:00,73.0,73.0,29.74,WSW,257,0.1,1.0,100,0.00,,,0.00,meteo_script,2013-09-02 02:10:00,
2013-09-01 22:15:00,72.9,72.9,29.74,North,0,0.1,2.0,100,0.00,,,0.00,meteo_script,2013-09-02 02:15:00,
2013-09-01 22:25:00,72.8,72.8,29.74,North,0,0.0,0.0,100,0.00,,,0.00,meteo_script,2013-09-02 02:25:00,
2013-09-01 22:30:00,72.8,72.8,29.74,West,267,0.0,1.0,100,0.00,,,0.00,meteo_script,2013-09-02 02:30:00,
2013-09-01 22:40:00,72.9,72.9,29.75,North,0,0.0,0.0,100,0.00,,,0.00,meteo_script,2013-09-02 02:40:00,
2013-09-01 22:45:00,72.9,72.9,29.75,North,0,0.0,0.0,100,0.00,,,0.00,meteo_script,2013-09-02 02:45:00,
2013-09-01 22:50:00,72.9,72.9,29.75,North,0,0.0,1.0,100,0.00,,,0.00,meteo_script,2013-09-02 02:50:00,
2013-09-01 23:00:00,72.9,72.9,29.75,North,0,0.0,0.0,100,0.00,,,0.00,meteo_script,2013-09-02 03:00:00,
2013-09-01 23:05:00,72.9,72.9,29.76,West,267,0.0,1.0,100,0.00,,,0.00,meteo_script,2013-09-02 03:05:00,
2013-09-01 23:10:00,72.9,72.9,29.76,North,0,0.0,0.0,100,0.00,,,0.00,meteo_script,2013-09-02 03:10:00,
2013-09-01 23:20:00,72.8,72.8,29.76,North,0,0.0,1.0,100,0.00,,,0.00,meteo_script,2013-09-02 03:20:00,
2013-09-01 23:25:00,72.8,72.8,29.76,North,0,0.0,0.0,100,0.00,,,0.00,meteo_script,2013-09-02 03:25:00,
2013-09-01 23:35:00,72.7,72.7,29.75,North,0,0.0,0.0,100,0.00,,,0.00,meteo_script,2013-09-02 03:35:00,
2013-09-01 23:40:00,72.7,72.7,29.76,North,0,0.0,1.0,100,0.00,,,0.00,meteo_script,2013-09-02 03:40:00,
2013-09-01 23:45:00,72.7,72.7,29.75,North,0,0.0,0.0,100,0.00,,,0.00,meteo_script,2013-09-02 03:45:00,
2013-09-01 23:55:00,72.7,72.7,29.75,North,0,0.0,0.0,100,0.00,,,0.00,meteo_script,2013-09-02 03:55:00,